Weather History for Szeged, Hungary

Change the Weather History Date:

Monday, September 16, 2013

  Actual Average (LRAR) Record (LRAR)
Temperature  
Mean Temperature 67 °F -  
Max Temperature 79 °F 69 °F 82 °F (1999)
Min Temperature 55 °F 46 °F 41 °F (2007)
Cooling Degree Days 2    
Growing Degree Days 17 (Base 50)    
Moisture  
Dew Point 55 °F    
Average Humidity 67    
Maximum Humidity 94    
Minimum Humidity 36    
Precipitation  
Precipitation 0.00 in 0.04 in - ()
Sea Level Pressure  
Sea Level Pressure 29.70 in    
Wind  
Wind Speed 4 mph ()    
Max Wind Speed 10 mph    
Max Gust Speed -    
Visibility 7.3 miles    
Events Rain    
Averages and records for this station are not official NWS values.
T = Trace of Precipitation, MM = Missing Value Source: Averaged Metar Reports

Daily Weather History Graph

Daily Weather History Graph

Search for Another Location

Airport:

Trip Planner

Search our weather history database for the weather conditions in past years. The results will help you decide how hot, cold, wet, or windy it might be!

Date:

Astronomy

Sep. 16, 2013 Rise Set
Actual Time 6:18 AM CEST 6:49 PM CEST
Civil Twilight 5:48 AM CEST 7:19 PM CEST
Nautical Twilight 5:12 AM CEST 7:54 PM CEST
Astronomical Twilight 4:35 AM CEST 8:31 PM CEST
Moon 4:53 PM CEST (9/16) 2:34 AM CEST (9/16)
Length of Visible Light 13h 30m
Length of Day
12h 30m
Waxing Gibbous, 88% of the Moon is Illuminated
Sep 16
Waxing Gibbous
Sep 19
Full
Sep 27
Last Quarter
Oct 5
New
Oct 12
First Quarter

Hourly Weather History & Observations

Time (CEST) Temp. Dew Point Humidity Pressure Visibility Wind Dir Wind Speed Gust Speed Precip Events Conditions
12:45 AM 57.2 °F 53.6 °F 88% 29.80 in - SSE 4.6 mph - N/A   Clear
1:45 AM 55.4 °F 53.6 °F 94% 29.80 in - SE 4.6 mph - N/A   Clear
2:00 AM 56 °F 53 °F 86% 29.79 in 25 mi SE 4.5 mph - -   Partly Cloudy
2:45 AM 57.2 °F 53.6 °F 88% 29.77 in - SE 8.1 mph - N/A   Clear
3:45 AM 57.2 °F 53.6 °F 88% 29.77 in - SE 4.6 mph - N/A   Clear
4:45 AM 57.2 °F 53.6 °F 88% 29.74 in - SE 4.6 mph - N/A   Clear
5:45 AM 57.2 °F 53.6 °F 88% 29.74 in - South 2.3 mph - N/A   Clear
6:15 AM 57.2 °F 53.6 °F 88% 29.74 in - SSE 3.5 mph - N/A   Clear
6:45 AM 59.0 °F 53.6 °F 82% 29.74 in - SE 4.6 mph - N/A   Clear
6:55 AM 59.0 °F 55.4 °F 88% 29.74 in 6.2 mi South 5.8 mph - N/A Rain Light Rain Showers
7:15 AM 57.2 °F 55.4 °F 94% 29.74 in 6.2 mi SE 4.6 mph - N/A Rain Light Rain Showers
7:45 AM 59.0 °F 55.4 °F 88% 29.74 in 6.2 mi Calm Calm - N/A   Mostly Cloudy
8:00 AM 59 °F 56 °F 86% 29.74 in 9 mi Calm Calm - - Rain Light Rain Showers
8:15 AM 59.0 °F 55.4 °F 88% 29.74 in - SSE 4.6 mph - N/A   Clear
8:45 AM 60.8 °F 57.2 °F 88% 29.74 in - South 2.3 mph - N/A   Clear
9:15 AM 62.6 °F 57.2 °F 82% 29.74 in - SSE 2.3 mph - N/A   Clear
9:45 AM 62.6 °F 57.2 °F 82% 29.74 in - SE 2.3 mph - N/A   Clear
10:15 AM 66.2 °F 57.2 °F 73% 29.74 in - SE 4.6 mph - N/A   Clear
10:45 AM 69.8 °F 57.2 °F 64% 29.74 in - SE 3.5 mph - N/A   Clear
11:15 AM 71.6 °F 57.2 °F 60% 29.74 in 6.2 mi SE 3.5 mph - N/A   Scattered Clouds
11:45 AM 73.4 °F 55.4 °F 53% 29.74 in 6.2 mi East 3.5 mph - N/A   Partly Cloudy
12:15 PM 75.2 °F 57.2 °F 53% 29.71 in 6.2 mi East 6.9 mph - N/A   Partly Cloudy
12:45 PM 77.0 °F 57.2 °F 50% 29.71 in 6.2 mi SE 4.6 mph - N/A   Partly Cloudy
1:15 PM 75.2 °F 55.4 °F 50% 29.71 in 6.2 mi SSE 5.8 mph - N/A   Scattered Clouds
1:45 PM 77.0 °F 53.6 °F 44% 29.71 in 6.2 mi SSE 3.5 mph - N/A   Scattered Clouds
2:00 PM 76 °F 54 °F 36% 29.69 in 25 mi SSE 2.2 mph - -   Partly Cloudy
2:15 PM 77.0 °F 53.6 °F 44% 29.68 in - ESE 5.8 mph - N/A   Clear
2:45 PM 78.8 °F 53.6 °F 42% 29.68 in - ESE 5.8 mph - N/A   Clear
3:15 PM 78.8 °F 53.6 °F 42% 29.68 in 6.2 mi SE 6.9 mph - N/A   Scattered Clouds
3:45 PM 77.0 °F 53.6 °F 44% 29.68 in 6.2 mi ESE 6.9 mph - N/A   Scattered Clouds
4:15 PM 77.0 °F 53.6 °F 44% 29.65 in - ESE 9.2 mph - N/A   Clear
4:45 PM 77.0 °F 53.6 °F 44% 29.65 in - ESE 5.8 mph - N/A   Clear
5:15 PM 75.2 °F 53.6 °F 47% 29.65 in - ESE 5.8 mph - N/A   Clear
5:45 PM 75.2 °F 53.6 °F 47% 29.65 in - ESE 4.6 mph - N/A   Clear
6:15 PM 73.4 °F 55.4 °F 53% 29.65 in 6.2 mi ESE 3.5 mph - N/A   Scattered Clouds
6:45 PM 68.0 °F 57.2 °F 68% 29.65 in - East 5.8 mph - N/A   Clear
7:15 PM 69.8 °F 55.4 °F 60% 29.65 in - East 5.8 mph - N/A   Clear
7:45 PM 68.0 °F 55.4 °F 64% 29.65 in - East 5.8 mph - N/A   Clear
8:00 PM 69 °F 55 °F 51% 29.63 in 19 mi East 6.7 mph - -   Partly Cloudy
8:15 PM 69.8 °F 53.6 °F 56% 29.65 in - East 6.9 mph - N/A   Clear
8:45 PM 68.0 °F 53.6 °F 60% 29.62 in - ESE 9.2 mph - N/A   Clear
9:15 PM 68.0 °F 53.6 °F 60% 29.62 in - ESE 9.2 mph - N/A   Clear
9:45 PM 66.2 °F 53.6 °F 64% 29.62 in - ESE 10.4 mph - N/A   Clear
10:45 PM 64.4 °F 53.6 °F 68% 29.59 in - ESE 9.2 mph - N/A   Clear
11:45 PM 60.8 °F 53.6 °F 77% 29.59 in - SSE 5.8 mph - N/A   Clear